[[{"header":{"parameterUnit":"m.s-1","parameterCategory":1,"la1":30.2991,"la2":30.254,"lo1":-89.0895,"lo2":-89.0444,"dy":0.0017,"dx":0.0017,"nx":28,"ny":28,"refTime":"2023-08-06T09:00:00:Z","depth":0,"parameterNumber":2,"parameterNumberName":"U-component_of_WINDS"},"data":[0,0,0,0,0,0,0,0,0,0,0,0,0,0,0,0,0,0,0,0,0,0,0,0,0,0,0,0,0,0,0,0,0,0,0,0,0,0,0,0,0,0,0,0,0,0,0,0,0,0,0,0,0,0,0,0,0,0,4.6864,4.6866,0,4.7004,4.7006,4.7007,4.6953,4.6949,4.6946,4.6943,4.7086,4.7092,4.7099,0,0,0,0,0,0,0,0,0,0,0,0,0,4.6548,4.6554,4.6864,4.6866,4.6868,4.7004,4.7006,4.7008,4.6953,4.6949,4.6945,4.6942,4.7083,4.7091,4.71,0,0,0,0,0,0,0,0,0,0,0,0,0,4.6686,4.6556,4.6864,4.6857,4.6858,4.7004,4.7006,4.7008,4.6954,4.6949,4.6944,4.694,4.7081,4.7091,4.7101,4.7262,0,0,4.7132,4.7137,0,0,0,0,0,0,0,0,4.6679,4.6698,4.6856,4.6858,4.6859,4.6956,4.6947,4.7093,4.6955,4.6918,4.6943,4.6937,4.7046,4.7059,4.7096,4.7268,4.7274,4.7133,4.7139,4.7144,4.7147,0,0,0,0,0,0,0,4.6669,4.6692,4.6919,4.6858,4.686,4.6846,4.6861,4.6974,4.7008,4.692,4.6917,4.6934,4.7046,4.7086,4.7099,4.7277,4.7133,4.7142,4.7148,4.7152,4.7587,4.7592,0,0,0,0,0,0,4.6659,4.6684,4.6915,4.6924,4.6755,4.6856,4.6872,4.693,4.7006,4.7013,4.6938,4.6931,4.7071,4.7087,4.7104,4.7296,4.7144,4.7153,4.7159,4.7581,4.7588,4.7594,0,0,0,0,0,0,4.6653,4.668,4.6909,4.6803,4.6831,4.6867,4.6932,4.6935,4.6975,4.702,4.7025,4.6973,4.7068,4.7089,4.7223,4.73,4.7158,4.7167,4.7575,4.7583,4.7591,4.7683,0,0,0,0,0,0,4.6644,4.6678,4.674,4.6805,4.6837,4.7027,4.6937,4.6941,4.6993,4.6985,4.7054,4.7061,4.7066,4.7208,4.7233,4.7312,4.7175,4.7568,4.7579,4.7588,4.7673,4.7693,4.7711,0,0,0,0,0,4.6633,4.6761,4.6744,4.6772,4.6915,4.7031,4.7049,4.7053,4.7,4.7062,4.709,4.7059,4.7288,4.7222,4.725,4.7333,4.7563,4.7576,4.7587,4.7665,4.7689,4.771,0,0,0,0,0,0,4.6704,4.6769,4.6751,4.6903,4.6962,4.7022,4.71,4.7079,4.7154,4.7143,4.7145,4.7161,4.7298,4.7329,4.7254,4.7492,4.7418,4.7436,4.7467,4.7491,4.7509,4.7498,4.7184,0,0,0,0,0,4.6737,4.6827,4.6878,4.7008,4.7039,4.7065,4.7115,4.7113,4.7174,4.7198,4.7236,4.7296,4.7382,4.7438,4.7519,4.7678,4.7691,4.7749,4.7767,4.7783,4.7798,4.7883,4.7909,4.7634,4.7634,4.7633,0,0,4.6807,4.6854,4.691,4.7024,4.7069,4.7161,4.7086,4.7186,4.7254,4.7213,4.7341,4.7372,4.7438,4.7585,4.7651,4.7615,4.7877,4.7798,4.781,4.7817,4.7898,4.7924,4.7947,4.7642,4.764,4.7639,0,0,4.6981,4.7026,4.7139,4.7186,4.7255,4.7272,4.7299,4.7362,4.738,4.7509,4.748,4.756,4.7708,4.7756,4.78,4.7993,4.7966,4.802,4.8117,4.8199,4.8221,4.824,4.8308,4.8332,4.8035,4.8035,4.8035,0,4.706,4.7197,4.7199,4.7302,4.7352,4.732,4.7433,4.7479,4.7571,4.7607,4.7565,4.7749,4.7792,4.7948,4.7995,4.8033,4.8063,4.8011,4.8218,4.8237,4.8255,4.8319,4.8345,4.8041,4.8041,4.804,4.8039,0,4.7289,4.7385,4.7467,4.7557,4.7617,4.7725,4.7743,4.7803,4.7796,4.7816,4.7947,4.7997,4.8088,4.8125,4.8119,4.8281,4.8256,4.8217,4.8141,4.8287,4.8347,4.8372,4.805,4.8048,4.8046,4.8044,0,0,4.7511,4.7601,4.7631,4.7671,4.7746,4.782,4.7926,4.8014,4.8065,4.813,4.8218,4.8344,4.8308,4.8358,4.8357,4.843,4.8578,4.8381,4.8383,4.8415,4.8758,4.8786,4.8815,4.8561,4.8566,4.8569,4.8752,0,4.769,4.7876,4.7881,4.8051,4.8139,4.811,4.8202,4.8257,4.8279,4.8357,4.8381,4.847,4.8416,4.8445,4.8516,4.8545,4.8646,4.8532,4.8642,4.8646,4.8624,4.8846,4.8877,4.9046,4.8775,4.8779,4.8782,0,4.7924,4.7996,4.8175,4.8236,4.8273,4.8356,4.8437,4.8512,4.8574,4.8584,4.864,4.8629,4.8736,4.8658,4.8806,4.8728,4.8773,4.8794,4.88,4.881,4.8722,4.886,4.9101,4.9126,4.882,4.8817,4.8814,0,4.8067,4.8209,4.8334,4.8369,4.8444,4.8503,4.8536,4.8593,4.8646,4.8717,4.8751,4.8834,4.8879,4.8943,4.8953,4.8896,4.9101,4.9024,4.9112,4.9112,4.9155,4.9152,4.9405,4.9187,4.9187,4.9186,4.9186,0,4.8265,4.8376,4.8399,4.8476,4.8598,4.8603,4.8723,4.8752,4.8803,4.8885,4.8865,4.8942,4.8952,4.9031,4.904,4.916,4.9181,4.9192,4.9193,4.9193,4.9191,4.9222,4.921,4.9193,4.9192,4.919,4.9189,0,4.8445,4.8465,4.8599,4.8659,4.8677,4.8764,4.8815,4.8888,4.8908,4.9011,4.9035,4.9067,4.9159,4.9176,4.9285,4.9291,4.9434,4.9424,4.9413,4.9411,4.9497,4.9489,4.9778,4.9815,4.9574,4.9576,4.9578,0,4.857,4.8654,4.8723,4.8776,4.8812,4.8898,4.8952,4.896,4.9016,4.9093,4.9156,4.9246,4.9319,4.9467,4.9499,4.9582,4.9573,4.9669,4.9585,4.9582,4.9573,4.9567,4.9575,4.9684,4.9687,4.9689,4.9691,0,4.8789,4.8795,4.8873,4.8955,4.9019,4.9084,4.9145,4.919,4.9206,4.927,4.9364,4.942,4.9531,4.962,4.9703,4.9737,4.9717,4.9717,4.9741,4.9741,4.9731,4.9736,4.9455,4.971,4.9708,4.9706,4.9705,4.9705,4.8944,4.9017,4.9077,4.9164,4.9211,4.9269,4.934,4.9369,4.9447,4.9538,4.9538,4.9641,4.97,4.9808,4.9848,4.9928,4.9897,4.9933,4.9942,4.995,4.9957,4.972,4.9943,4.9942,4.9942,4.9941,4.9941,0,4.9161,4.9198,4.9278,4.9365,4.9433,4.9408,4.9475,4.9534,4.9624,4.9681,4.9753,4.986,4.9946,4.9986,5.007,5.0127,5.0119,5.0149,5.0144,5.0152,4.9981,4.995,5.0153,5.0153,5.0153,5.0153,5.0153,5.0153,4.9282,4.9403,4.9416,4.956,4.9596,4.9697,4.9736,4.9789,4.9834,4.9955,5.0027,5.0052,5.0102,5.019,5.0268,5.0277,5.0308,5.0342,5.0347,5.0186,5.0164,5.0143,5.0115,5.0349,5.0349,5.0511,5.0512,5.0513]},{"header":{"parameterUnit":"m.s-1","parameterCategory":1,"la1":30.2991,"la2":30.254,"lo1":-89.0895,"lo2":-89.0444,"dy":0.0017,"dx":0.0017,"nx":28,"ny":28,"refTime":"2023-08-06T09:00:00:Z","depth":0,"parameterNumber":3,"parameterNumberName":"V-component_of_WINDS"},"data":[0,0,0,0,0,0,0,0,0,0,0,0,0,0,0,0,0,0,0,0,0,0,0,0,0,0,0,0,0,0,0,0,0,0,0,0,0,0,0,0,0,0,0,0,0,0,0,0,0,0,0,0,0,0,0,0,0,0,0.3837,0.3838,0,0.3916,0.3917,0.3918,0.3935,0.3934,0.3934,0.3933,0.4017,0.402,0.4023,0,0,0,0,0,0,0,0,0,0,0,0,0,0.3702,0.3705,0.3837,0.3838,0.3839,0.3916,0.3917,0.3918,0.3935,0.3934,0.3933,0.3933,0.4016,0.402,0.4023,0,0,0,0,0,0,0,0,0,0,0,0,0,0.3769,0.3706,0.3836,0.3856,0.3859,0.3915,0.3917,0.3918,0.3935,0.3934,0.3933,0.3932,0.4015,0.4019,0.4024,0.4067,0,0,0.4036,0.4038,0,0,0,0,0,0,0,0,0.3765,0.3774,0.3852,0.3855,0.3858,0.3914,0.39,0.3968,0.3935,0.3906,0.3933,0.3932,0.3984,0.3991,0.4008,0.4071,0.4075,0.4037,0.4039,0.4041,0.4042,0,0,0,0,0,0,0,0.3761,0.3771,0.3868,0.3853,0.3857,0.3862,0.387,0.3913,0.3949,0.3909,0.391,0.3919,0.3985,0.4004,0.401,0.4076,0.4037,0.404,0.4043,0.4045,0.4179,0.418,0,0,0,0,0,0,0.3752,0.3767,0.3866,0.387,0.3808,0.3865,0.3875,0.3897,0.3949,0.3956,0.392,0.3919,0.3997,0.4005,0.4013,0.4067,0.4041,0.4045,0.4047,0.4178,0.4179,0.418,0,0,0,0,0,0,0.3749,0.3761,0.3862,0.3819,0.3832,0.3868,0.3894,0.3899,0.3917,0.3957,0.3964,0.3931,0.3996,0.4007,0.4053,0.407,0.4047,0.4051,0.4176,0.4178,0.4179,0.4176,0,0,0,0,0,0,0.3745,0.376,0.3776,0.3819,0.3834,0.3901,0.3895,0.3901,0.3924,0.3925,0.397,0.3977,0.3997,0.4047,0.4057,0.4076,0.4054,0.4175,0.4177,0.4179,0.4175,0.4178,0.418,0,0,0,0,0,0.374,0.3773,0.3777,0.3789,0.3856,0.3902,0.3911,0.3932,0.3925,0.3943,0.3968,0.3975,0.4066,0.4051,0.4063,0.4083,0.4174,0.4176,0.4179,0.4174,0.4177,0.418,0,0,0,0,0,0,0.3733,0.3779,0.3784,0.3831,0.3862,0.3904,0.3927,0.3935,0.3969,0.3968,0.3994,0.4004,0.4049,0.4071,0.4053,0.4128,0.412,0.4125,0.4112,0.4116,0.4118,0.4112,0.4057,0,0,0,0,0,0.3736,0.3768,0.3808,0.3846,0.3861,0.3891,0.3912,0.3925,0.3959,0.3973,0.4001,0.4035,0.4071,0.4094,0.413,0.4178,0.4188,0.4197,0.42,0.4201,0.4206,0.4233,0.4237,0.4188,0.4188,0.4188,0,0,0.3744,0.3773,0.3793,0.3845,0.387,0.3904,0.3902,0.3938,0.3964,0.3979,0.4024,0.4046,0.4085,0.4132,0.4154,0.4151,0.4221,0.4204,0.4205,0.4209,0.4236,0.424,0.4244,0.4189,0.4189,0.4189,0,0,0.3776,0.3801,0.3836,0.3861,0.3899,0.3919,0.3927,0.3968,0.3983,0.4028,0.404,0.4071,0.4132,0.4159,0.4181,0.4222,0.423,0.4232,0.4245,0.4271,0.4275,0.4279,0.4294,0.4299,0.4236,0.4236,0.4236,0,0.3782,0.3833,0.3853,0.3888,0.3911,0.3924,0.3959,0.3983,0.4031,0.4047,0.4042,0.4119,0.4146,0.42,0.421,0.4227,0.4237,0.4228,0.4273,0.4277,0.428,0.4295,0.4301,0.4237,0.4237,0.4237,0.4237,0,0.3838,0.3873,0.3896,0.3941,0.3966,0.4001,0.4027,0.405,0.4061,0.4081,0.4127,0.4159,0.4201,0.4215,0.4227,0.427,0.4267,0.4267,0.426,0.4285,0.4299,0.4305,0.4237,0.4237,0.4237,0.4237,0,0,0.3869,0.3923,0.3932,0.3952,0.3994,0.4022,0.4058,0.4097,0.4117,0.4149,0.418,0.4231,0.4231,0.4256,0.427,0.4293,0.4324,0.4291,0.4292,0.4296,0.4374,0.4374,0.4381,0.4328,0.4329,0.433,0.4371,0,0.3907,0.397,0.3989,0.4042,0.4075,0.4087,0.4118,0.4147,0.4167,0.4198,0.422,0.4255,0.4253,0.4267,0.429,0.4315,0.434,0.4312,0.4359,0.436,0.435,0.4388,0.4389,0.4426,0.4377,0.4378,0.4378,0,0.3961,0.3993,0.4049,0.4086,0.4101,0.4128,0.4166,0.4195,0.4229,0.4241,0.4268,0.428,0.4318,0.4307,0.436,0.4341,0.4361,0.4376,0.4378,0.4384,0.4372,0.4396,0.4438,0.4444,0.4387,0.4387,0.4386,0,0.3979,0.4036,0.4077,0.4094,0.4138,0.4157,0.4177,0.4209,0.4232,0.4265,0.428,0.4317,0.4338,0.4367,0.4389,0.4379,0.444,0.4431,0.4452,0.4452,0.4466,0.4465,0.4512,0.4477,0.4477,0.4477,0.4476,0,0.402,0.4054,0.4085,0.4111,0.4149,0.417,0.4208,0.4228,0.4257,0.4287,0.4299,0.4327,0.4354,0.4385,0.4403,0.4444,0.4454,0.4465,0.447,0.4465,0.4463,0.4479,0.4478,0.4478,0.4478,0.4477,0.4477,0,0.4047,0.4069,0.4115,0.4152,0.4163,0.419,0.4222,0.4248,0.4266,0.4304,0.4314,0.4345,0.4382,0.4407,0.4455,0.4467,0.4512,0.4516,0.4501,0.4503,0.4523,0.4521,0.4584,0.4593,0.455,0.455,0.455,0,0.4073,0.4099,0.4139,0.4159,0.4179,0.4211,0.4234,0.4255,0.4278,0.4318,0.4338,0.4376,0.4408,0.4468,0.4495,0.4532,0.4537,0.4556,0.4543,0.4537,0.4538,0.4537,0.454,0.4559,0.4559,0.4559,0.456,0,0.4116,0.4125,0.4156,0.4192,0.4218,0.4247,0.4276,0.4292,0.4318,0.4343,0.4381,0.4406,0.4454,0.4492,0.4531,0.4553,0.4561,0.4563,0.457,0.4566,0.4557,0.4563,0.4508,0.4562,0.4562,0.4562,0.4562,0.4562,0.4144,0.4167,0.4199,0.4234,0.4257,0.4284,0.4309,0.433,0.4362,0.4403,0.4413,0.4453,0.4486,0.4539,0.456,0.4592,0.459,0.46,0.4603,0.4605,0.4606,0.455,0.4599,0.4599,0.4599,0.4599,0.4599,0,0.4188,0.4208,0.424,0.4279,0.4306,0.431,0.4342,0.4365,0.4399,0.4428,0.4459,0.4502,0.4539,0.4568,0.4605,0.4625,0.463,0.4635,0.4634,0.4639,0.4605,0.4596,0.463,0.463,0.463,0.463,0.463,0.463,0.4214,0.4255,0.4267,0.432,0.434,0.4378,0.4396,0.4421,0.4444,0.4492,0.4522,0.454,0.4569,0.4609,0.4642,0.465,0.4664,0.4668,0.4676,0.4645,0.4641,0.4638,0.4629,0.467,0.467,0.4707,0.4708,0.4708]}]]